Location: Hernandez
(10.3704°N, 67.2181°W)
Time: 06:16:34
(UTC+00:00)

GPS 2-17 Rocket1 - Visible Passes

Search period start: 24 July 2024 00:00
Search period end: 03 August 2024 00:00
Orbit: 558 x 637 km, 20.3° (Epoch: 23 July)

Date Brightness Start Highest point End Pass type
(mag) Time Alt. Az. Time Alt. Az. Time Alt. Az.
24 Jul 5.5 00:14:52 10° SW 00:16:01 11° SSW 00:17:11 10° S visible
26 Jul 5.1 09:12:10 10° S 09:14:17 14° SSE 09:16:32 10° SE visible
27 Jul 4.6 09:20:29 13° SSW 09:23:06 22° SSE 09:26:28 10° ESE visible
28 Jul 3.8 09:28:46 15° SW 09:31:54 36° SSE 09:35:49 10° E visible
29 Jul 5.7 08:00:28 11° ESE 08:00:28 11° ESE 08:00:39 10° ESE visible
29 Jul 3.1 09:37:01 13° WSW 09:40:40 60° SSE 09:44:52 10° E visible
30 Jul 5.2 08:08:43 18° ESE 08:08:43 18° ESE 08:10:15 10° E visible
30 Jul 2.9 09:45:16 11° WSW 09:49:28 84° NNW 09:53:43 10° ENE visible
31 Jul 4.4 08:16:55 30° ESE 08:16:55 30° ESE 08:19:27 10° E visible
31 Jul 3.3 09:54:03 10° W 09:58:16 54° NNW 10:02:25 10° ENE visible
01 Aug 3.6 08:25:06 50° E 08:25:06 50° E 08:28:23 10° ENE visible
02 Aug 3.1 08:33:15 65° NNE 08:33:15 65° NNE 08:37:08 10° ENE visible
